Coraopolis, PA

4:36 AM EST on February 22, 2017 (GMT -0500)
Pittsburgh International

Weather History for KPIT - April, 2014

Change the Weather History Date:

Saturday, April 26, 2014

  Actual Average Record
Temperature  
Mean Temperature 55 °F 54 °F  
Max Temperature 70 °F 65 °F 87 °F (1990)
Min Temperature 40 °F 44 °F 29 °F (1981)
Degree Days  
Heating Degree Days 10 11  
Month to date heating degree days 337 389  
Since 1 July heating degree days 5808 5434  
Cooling Degree Days 0 0  
Month to date cooling degree days 10 0  
Year to date cooling degree days 10 1  
Growing Degree Days 6 (Base 50)    
Moisture  
Dew Point 39 °F    
Average Humidity 64    
Maximum Humidity 96    
Minimum Humidity 31    
Precipitation  
Precipitation T in 0.11 in 1.50 in (1998)
Month to date precipitation 3.13 2.70  
Year to date precipitation 9.43 10.74  
Snow  
Snow 0.00 in 0.00 in T in (1933)
Month to date snowfall 0.1 1.5  
Since 1 July snowfall 63.4 41.9  
Snow Depth 0.00 in    
Sea Level Pressure  
Sea Level Pressure 29.89 in    
Wind  
Wind Speed 13 mph (West)    
Max Wind Speed 38 mph    
Max Gust Speed 48 mph    
Visibility 8 miles    
Events      
T = Trace of Precipitation, MM = Missing Value Source: NWS Daily Summary

Daily Weather History Graph

Daily Weather History Graph

Search for Another Location

Airport or City:

Trip Planner

Search our weather history database for the weather conditions in past years. The results will help you decide how hot, cold, wet, or windy it might be!

Date:

Astronomy

Apr. 26, 2014 Rise Set
Actual Time 6:26 AM EDT 8:11 PM EDT
Civil Twilight 5:57 AM EDT 8:40 PM EDT
Nautical Twilight 5:22 AM EDT 9:16 PM EDT
Astronomical Twilight 4:44 AM EDT 9:54 PM EDT
Moon 4:50 AM EDT (4/26) 5:37 PM EDT (4/26)
Length of Visible Light 14h 43m
Length of Day
13h 44m
Waning Crescent, 8% of the Moon is Illuminated
Apr 26
Waning Crescent
Apr 29
New
May 6
First Quarter
May 14
Full
May 21
Last Quarter

Hourly Weather History & Observations

Time (EDT) Temp. Windchill Dew Point Humidity Pressure Visibility Wind Dir Wind Speed Gust Speed Precip Events Conditions
12:51 AM 46.0 °F 43.9 °F 41.0 °F 83% 29.92 in 8.0 mi SW 4.6 mph - N/A   Clear
1:51 AM 42.8 °F 41.1 °F 41.0 °F 93% 29.88 in 5.0 mi SSW 3.5 mph - N/A   Mostly Cloudy
2:51 AM 44.1 °F 42.5 °F 42.1 °F 93% 29.89 in 4.0 mi SSW 3.5 mph - N/A   Mostly Cloudy
3:51 AM 43.0 °F - 41.0 °F 93% 29.88 in 4.0 mi Calm Calm - N/A   Mostly Cloudy
4:51 AM 46.0 °F 41.0 °F 43.0 °F 89% 29.87 in 5.0 mi SSW 10.4 mph - N/A   Mostly Cloudy
5:51 AM 46.9 °F - 43.0 °F 86% 29.87 in 6.0 mi SW 6.9 mph - N/A   Overcast
6:51 AM 48.0 °F - 42.1 °F 80% 29.88 in 6.0 mi SW 4.6 mph - N/A   Haze
7:51 AM 48.0 °F - 43.0 °F 83% 29.87 in 8.0 mi South 6.9 mph - 0.00 in   Mostly Cloudy
8:51 AM 51.1 °F - 42.1 °F 71% 29.87 in 10.0 mi WSW 12.7 mph 20.7 mph N/A   Mostly Cloudy
9:51 AM 54.0 °F - 43.0 °F 66% 29.86 in 10.0 mi West 8.1 mph - N/A   Mostly Cloudy
10:51 AM 57.9 °F - 42.1 °F 56% 29.84 in 10.0 mi WSW 12.7 mph 23.0 mph N/A   Mostly Cloudy
11:51 AM 64.4 °F - 39.2 °F 40% 29.80 in 10.0 mi West 17.3 mph 26.5 mph N/A   Partly Cloudy
12:51 PM 69.1 °F - 37.9 °F 32% 29.80 in 10.0 mi West 20.7 mph 33.4 mph N/A   Scattered Clouds
1:51 PM 68.0 °F - 39.0 °F 35% 29.81 in 10.0 mi WNW 23.0 mph 35.7 mph N/A   Scattered Clouds
2:51 PM 69.1 °F - 37.9 °F 32% 29.82 in 10.0 mi WNW 28.8 mph 40.3 mph N/A   Scattered Clouds
3:51 PM 66.9 °F - 37.9 °F 34% 29.83 in 10.0 mi NW 25.3 mph - N/A   Partly Cloudy
4:51 PM 66.2 °F - 37.4 °F 35% 29.84 in 10.0 mi NW 25.3 mph 35.7 mph N/A   Partly Cloudy
5:51 PM 62.1 °F - 35.1 °F 37% 29.91 in 10.0 mi NNW 20.7 mph 32.2 mph N/A   Partly Cloudy
6:51 PM 57.9 °F - 33.1 °F 39% 29.93 in 10.0 mi NNW 18.4 mph - N/A   Partly Cloudy
7:51 PM 54.0 °F - 33.1 °F 45% 29.96 in 10.0 mi NNW 18.4 mph - N/A   Partly Cloudy
8:51 PM 50.0 °F - 33.1 °F 52% 29.99 in 10.0 mi North 15.0 mph 21.9 mph N/A   Partly Cloudy
9:51 PM 48.0 °F - 33.1 °F 56% 30.02 in 10.0 mi NNE 9.2 mph - N/A   Partly Cloudy
10:51 PM 45.0 °F 38.2 °F 33.1 °F 63% 30.04 in 10.0 mi NNE 15.0 mph - N/A   Clear
11:51 PM 43.0 °F 38.2 °F 33.1 °F 68% 30.05 in 10.0 mi North 8.1 mph - N/A   Clear